GFSSGP_925_thetae_159.txt.gz
Theta_e
325 324 319 319 320 318 322 326 322 326 329 325 326 327 328 333 333 327 334 334 333 327 332 331 331 335 336 335 336 336 335 335 333 332 334 333 331 330 330 330 329 329 329 330 330 330 330 330 330
325 324 319 315 320 319 319 319 324 325 327 328 327 331 333 336 333 332 335 334 328 326 333 328 331 335 335 335 335 335 334 332 332 332 333 333 332 330 330 329 329 329 329 330 330 330 329 329 327
323 318 315 319 317 322 322 325 323 326 325 325 330 329 331 335 333 334 335 331 326 329 331 325 332 334 335 335 335 334 333 332 333 332 333 332 332 330 329 329 328 328 328 330 330 329 329 328 326
318 318 314 320 324 322 320 326 325 325 325 326 328 332 330 332 334 334 334 328 326 331 330 325 331 334 334 334 332 331 331 331 330 330 332 333 331 330 329 328 327 328 328 329 329 328 328 328 325
317 316 320 323 323 322 323 325 324 327 326 327 328 334 335 332 331 334 332 326 324 331 330 324 326 333 334 332 330 329 329 329 329 329 331 331 330 329 328 327 326 327 328 328 327 324 325 325 324
316 317 322 323 322 322 318 323 325 325 325 328 332 334 333 332 333 334 331 323 326 331 327 325 323 332 332 330 330 327 327 329 329 327 330 330 328 328 327 326 326 326 326 325 323 323 323 324 323
317 320 324 323 323 324 318 319 325 324 325 327 330 335 332 330 333 333 328 321 329 330 328 326 323 331 330 329 329 326 325 328 327 327 328 328 326 326 326 325 323 322 320 318 321 322 322 323 323
315 320 325 323 323 326 320 319 321 324 325 324 331 334 335 329 331 331 328 326 330 330 328 326 323 325 327 327 327 325 322 325 325 326 325 325 325 326 325 323 317 314 316 316 318 322 321 321 321
320 321 325 326 325 325 319 318 318 320 322 323 325 330 331 330 331 329 329 329 331 330 328 327 327 326 325 324 326 326 323 323 322 321 322 322 321 324 324 321 317 315 313 315 316 319 320 320 320
324 322 322 323 324 323 321 317 318 323 324 327 332 332 329 330 329 327 328 328 331 330 329 327 328 329 327 326 326 327 326 325 323 321 319 318 318 317 319 320 317 316 314 314 314 317 318 319 319
322 326 320 318 320 317 316 318 317 321 324 324 329 331 328 330 329 327 327 328 328 328 329 327 327 329 329 327 327 328 328 326 324 322 320 319 318 318 316 316 317 316 316 317 318 318 319 319 319
328 324 323 322 321 323 316 315 318 318 322 321 324 331 328 330 330 329 328 328 327 327 327 327 327 326 328 329 328 328 329 327 325 323 321 322 323 322 318 315 315 315 315 316 318 319 319 319 319
325 326 324 323 323 323 315 312 315 316 316 315 328 331 329 328 331 331 330 329 329 327 324 325 327 326 325 327 329 327 328 327 324 322 324 325 325 324 321 317 315 315 315 316 318 318 318 318 318
323 324 324 325 326 325 324 318 312 313 313 325 331 332 331 329 328 330 331 330 330 330 326 323 323 325 324 324 326 327 326 324 324 322 323 326 326 325 324 320 317 317 317 319 318 319 318 318 318
325 330 329 329 327 326 315 312 311 311 311 326 330 331 331 331 330 329 330 331 331 331 330 328 324 324 323 323 323 325 325 324 323 322 321 326 326 325 325 322 322 321 320 320 319 319 319 319 319
327 328 332 329 329 329 315 320 314 312 310 312 328 328 331 331 332 332 330 328 331 331 331 330 328 328 326 325 324 325 324 324 323 322 324 324 326 326 325 322 323 322 321 321 320 320 320 319 319
326 327 329 328 327 330 320 317 314 315 308 310 311 327 330 331 330 332 332 330 328 331 331 331 330 329 329 329 328 328 327 325 324 323 327 326 325 326 326 324 323 323 322 321 320 320 320 319 318
329 328 328 330 329 327 326 318 314 313 314 311 309 307 323 329 330 330 331 332 330 328 331 331 331 331 330 329 329 329 329 328 326 327 327 327 326 325 325 323 324 324 323 322 321 320 320 318 319
324 327 328 327 327 330 330 329 326 317 312 313 312 308 307 316 326 328 328 330 331 330 329 330 330 330 330 330 329 328 328 328 328 328 328 328 327 325 325 323 324 324 324 323 322 321 320 319 320
325 326 326 327 328 329 330 329 326 322 321 315 315 315 308 309 310 320 327 328 329 330 330 329 330 330 330 329 330 329 329 329 329 328 329 328 328 326 325 324 323 324 324 324 323 322 321 320 321
328 328 326 328 326 328 327 331 329 326 317 315 314 315 316 313 310 310 318 327 328 329 329 329 330 329 330 329 329 329 329 329 329 329 329 330 329 328 327 326 325 323 323 324 324 324 323 321 321
329 326 326 329 330 334 327 335 329 327 326 322 318 317 318 317 311 310 309 318 326 328 328 328 328 329 329 329 328 328 328 328 327 327 328 330 329 329 328 327 327 325 324 323 323 324 324 323 322
327 323 325 326 330 326 322 325 327 324 324 323 319 318 319 319 317 310 309 312 320 324 328 328 328 328 329 329 328 328 327 327 327 326 326 327 329 329 329 328 328 327 326 325 323 323 324 324 323
324 324 324 324 324 328 326 324 327 321 316 319 318 316 316 317 315 313 312 312 316 321 326 328 328 328 328 329 328 328 328 327 326 327 326 326 326 326 327 328 328 328 327 326 326 324 323 323 323
325 326 326 327 325 329 321 324 327 319 315 314 314 314 310 311 311 311 309 309 316 321 324 327 328 327 328 328 328 328 328 327 327 326 326 326 326 326 326 327 327 327 327 327 326 326 324 324 323
324 325 329 331 327 325 315 326 323 318 317 319 316 315 310 307 307 309 310 308 313 319 323 325 327 328 328 327 328 328 328 327 327 327 326 326 326 326 326 326 326 327 326 326 326 326 326 325 324
324 326 320 319 306 313 315 312 310 311 311 310 308 311 311 309 304 304 305 308 309 317 321 324 326 327 328 328 328 327 328 328 327 327 327 327 326 326 326 326 326 326 326 326 326 326 326 326 325
320 319 323 321 323 321 316 312 317 313 314 319 310 307 307 306 305 303 302 304 308 312 318 322 324 326 327 328 328 329 329 328 328 328 328 327 327 327 327 327 327 327 327 327 327 325 324 324 325
322 323 323 320 318 323 316 315 308 314 312 310 309 307 306 304 303 302 301 302 305 307 314 319 323 324 326 326 327 328 329 329 329 329 329 328 329 329 328 329 329 328 328 328 328 326 325 324 324
320 322 322 325 322 313 313 316 308 307 308 304 303 303 304 302 302 300 300 301 302 305 306 317 321 323 324 325 326 327 328 328 329 329 329 329 329 329 329 329 329 330 329 329 327 326 324 324 324

GFSSGP_925_thetae_162.txt.gz
Theta_e
325 325 319 319 319 316 321 325 321 326 327 324 323 323 326 331 332 326 333 334 334 330 330 331 334 336 336 335 335 334 334 333 333 333 332 330 329 329 329 329 329 329 330 330 331 331 330 328 326
324 321 319 315 320 319 318 317 323 324 328 327 328 330 332 333 332 332 333 333 333 328 329 329 333 336 335 335 335 334 333 332 333 333 331 331 330 330 329 329 328 329 330 330 329 330 329 327 327
321 318 316 318 317 322 321 321 321 326 327 325 332 329 330 333 332 332 334 332 330 326 330 329 333 335 334 334 335 333 332 330 331 332 331 331 329 329 328 328 328 329 329 329 329 329 329 327 327
319 318 314 319 324 322 319 324 324 325 325 326 329 333 329 331 333 333 334 330 327 327 329 326 333 334 334 335 334 333 332 329 331 334 330 331 330 329 327 328 327 329 328 328 329 330 328 326 325
318 315 319 322 323 321 320 323 322 326 326 326 326 331 334 331 332 333 333 328 324 330 327 326 332 334 334 334 332 330 330 330 330 331 331 329 328 327 326 327 327 328 328 328 328 327 325 323 322
316 315 322 322 321 321 316 323 324 325 325 328 332 332 332 330 331 333 331 326 325 330 327 323 332 334 334 332 330 329 328 329 329 330 330 329 328 327 326 326 327 328 328 328 326 324 324 323 321
316 319 323 323 322 323 318 319 325 324 325 328 329 331 331 330 332 333 331 325 325 330 327 322 327 333 333 331 329 327 327 328 328 328 328 327 325 326 325 324 326 326 326 325 323 323 323 323 322
317 319 323 323 323 324 321 320 320 323 324 326 329 329 330 328 332 332 329 324 327 330 326 323 322 332 331 330 328 326 327 328 327 326 327 327 325 325 323 320 320 321 319 321 322 322 322 321 321
321 322 326 325 325 324 318 317 317 319 324 326 328 328 329 330 331 330 327 327 331 330 327 325 323 329 330 329 328 324 324 326 325 323 325 325 322 323 322 318 314 315 316 317 321 321 320 320 320
326 327 325 319 321 321 316 316 316 321 324 325 330 331 328 331 329 328 328 328 330 331 329 326 323 324 328 327 326 325 322 323 322 322 321 321 322 322 321 318 316 313 314 315 318 319 319 319 319
324 331 324 326 322 322 319 317 315 319 322 323 326 328 327 328 327 328 328 328 328 329 329 327 326 325 325 325 326 326 324 323 322 320 319 319 318 319 320 319 317 315 314 314 315 317 318 318 318
327 326 326 327 322 323 323 315 312 316 319 317 320 327 327 328 327 327 327 327 328 328 329 327 326 328 327 326 326 326 326 325 324 321 319 318 317 317 316 317 316 316 315 317 317 318 318 319 318
325 327 326 326 322 322 322 322 317 314 313 313 321 327 327 328 328 328 328 327 327 328 328 327 326 327 328 327 327 327 327 327 325 323 321 320 320 320 317 315 315 315 315 315 316 318 318 318 318
323 325 325 325 325 324 325 324 313 313 310 317 327 329 326 328 329 329 328 328 328 328 328 326 327 325 326 328 328 327 327 327 326 324 321 322 323 323 321 319 316 315 315 315 316 318 318 317 318
325 328 327 326 327 327 321 327 315 313 310 313 324 328 327 326 328 329 330 329 329 329 329 326 325 326 325 325 326 328 327 326 326 324 322 322 324 325 324 323 319 316 315 317 319 318 319 318 318
328 327 330 327 328 327 326 331 322 317 310 309 314 324 328 328 327 328 329 330 330 329 329 329 324 323 325 325 323 324 327 326 325 324 323 321 323 325 325 324 321 321 320 320 320 319 319 319 318
327 330 327 327 328 328 325 326 323 317 313 310 308 317 326 329 328 330 328 328 330 330 330 330 328 324 322 322 323 323 323 325 324 323 323 321 321 324 325 324 323 322 323 322 320 320 319 319 319
330 331 325 327 328 328 326 324 322 322 319 313 310 306 320 327 328 330 331 330 329 329 331 330 330 329 326 323 324 323 323 324 324 323 323 321 323 324 325 325 325 323 323 323 321 321 320 319 318
323 326 328 326 326 328 328 328 327 325 322 317 313 310 307 312 325 328 330 331 331 328 329 330 330 330 329 327 326 326 326 327 327 327 324 323 324 326 326 325 325 324 324 323 322 321 320 319 318
327 326 326 325 326 327 326 328 326 326 325 324 323 318 311 309 308 313 326 328 331 331 329 329 330 329 330 328 328 327 327 327 328 328 327 326 326 327 327 326 324 324 323 324 323 322 321 320 319
324 328 327 326 325 326 329 329 327 326 324 324 322 320 319 316 314 310 314 325 327 329 329 328 329 329 329 329 328 327 327 327 327 327 328 328 327 328 327 327 325 324 323 323 323 323 322 321 321
325 323 325 326 328 331 327 332 325 324 326 324 324 322 318 316 315 314 310 314 324 326 329 328 328 328 329 329 328 328 328 328 327 327 326 328 328 328 328 327 327 325 324 323 323 323 323 322 321
326 324 326 326 329 327 327 329 325 324 325 323 323 322 320 317 317 315 313 312 315 322 325 328 328 328 328 328 328 328 328 328 328 327 327 327 328 329 328 328 328 327 325 325 324 323 323 323 322
323 324 325 326 328 330 327 328 326 326 322 321 321 321 321 320 319 318 317 315 311 316 324 326 327 327 327 328 328 327 328 327 327 327 326 326 327 327 327 328 328 328 327 326 326 325 324 323 322
324 326 327 327 326 328 321 326 324 323 315 315 317 315 314 313 311 311 311 308 309 313 320 324 326 326 326 327 327 327 327 327 326 326 326 325 325 325 325 325 327 328 328 327 327 326 325 324 322
324 324 327 328 326 325 318 328 324 319 319 320 317 316 315 308 307 309 310 310 311 311 317 322 324 325 326 326 327 327 327 327 327 326 326 326 326 326 325 324 325 324 325 326 327 326 325 325 324
325 327 321 322 311 318 318 313 314 312 313 311 311 310 313 312 308 306 306 308 309 311 315 320 323 325 325 326 326 326 327 327 327 327 327 327 327 326 326 325 325 325 325 325 325 324 323 322 324
323 320 324 320 326 322 319 316 320 315 315 314 315 311 308 307 308 307 304 303 308 309 313 318 322 324 325 325 326 326 327 327 327 326 326 326 326 326 326 326 325 325 326 325 324 323 322 321 321
321 323 322 322 321 321 320 318 309 314 314 313 309 307 307 306 305 305 306 304 304 306 310 316 320 323 325 326 326 326 326 326 326 326 327 327 327 326 326 326 326 326 327 326 323 323 323 322 322
320 321 322 324 320 315 313 319 311 307 307 306 305 303 302 301 302 301 301 300 301 303 306 312 318 321 323 325 326 326 326 326 326 326 327 327 327 327 327 327 327 328 327 327 326 325 323 323 323

GFSSGP_925_thetae_168.txt.gz
Theta_e
327 326 321 324 326 328 329 329 326 328 330 327 329 329 330 331 330 330 333 335 334 335 336 338 335 336 335 334 333 332 331 331 330 330 330 330 330 330 330 330 329 331 333 329 328 329 328 328 327
322 323 323 326 328 326 327 323 328 328 331 328 329 330 332 332 334 335 335 335 334 334 335 338 335 336 334 334 333 331 330 330 330 329 330 330 329 329 330 330 329 329 330 329 328 330 327 327 327
323 321 325 327 328 327 328 326 326 331 330 331 332 332 332 333 335 334 334 335 334 334 334 337 335 335 334 334 333 330 331 331 328 329 329 330 329 329 329 329 329 329 329 329 328 328 328 327 326
324 325 323 328 328 327 326 325 326 333 330 327 332 332 332 332 335 333 333 334 334 333 334 336 335 335 334 334 332 328 330 331 330 328 329 329 328 328 328 329 328 329 329 329 328 328 327 326 325
323 326 328 327 327 326 324 326 328 332 329 330 331 330 331 333 334 333 333 334 333 331 333 336 336 335 334 334 332 330 329 331 332 329 328 328 327 328 328 328 328 328 328 328 327 327 326 323 321
331 326 333 332 326 324 324 327 330 330 328 330 331 330 330 331 333 334 333 334 332 330 333 336 335 335 334 334 332 330 329 332 331 329 328 327 327 327 327 328 327 327 327 329 328 324 320 319 319
335 336 335 330 328 326 322 322 328 328 328 330 331 330 331 333 333 334 333 333 331 329 331 335 337 335 334 334 332 331 329 329 329 328 328 327 326 326 327 327 327 327 327 326 326 322 321 319 318
325 333 333 333 335 332 324 321 321 326 328 328 330 330 328 332 333 334 332 331 329 329 329 332 336 336 336 334 331 328 329 328 328 328 327 326 325 325 326 326 326 327 327 323 323 323 322 320 318
324 336 338 335 332 331 323 326 322 319 324 328 331 331 330 332 332 333 332 330 329 330 329 330 335 336 336 335 331 327 327 328 328 327 326 326 326 325 323 326 326 326 324 322 321 321 321 320 319
333 337 337 332 330 331 326 327 328 327 327 326 326 330 331 331 333 333 332 330 329 329 330 328 330 334 335 333 331 329 328 327 327 329 328 327 326 325 324 322 323 322 322 321 321 320 319 320 321
330 336 333 329 326 325 329 326 325 329 331 328 326 324 329 331 333 333 332 330 327 326 329 329 327 330 334 332 331 329 328 327 327 328 328 327 325 324 323 323 320 321 318 322 320 319 320 320 320
331 329 329 329 325 328 329 328 328 327 331 328 325 322 320 329 332 333 332 331 328 326 328 329 327 327 330 330 330 329 327 327 327 326 326 326 325 325 324 323 322 321 319 320 320 320 320 319 318
329 327 327 327 326 327 326 327 328 327 325 326 322 316 320 323 328 331 332 332 329 327 327 328 328 327 328 330 329 328 327 327 326 326 325 324 324 324 324 324 322 320 319 319 319 320 320 320 319
327 327 326 326 326 326 327 327 325 326 326 325 323 323 325 323 326 329 332 332 330 329 328 328 328 327 327 327 328 327 326 326 326 325 324 323 322 322 322 322 322 320 319 318 319 320 320 320 320
327 330 329 327 327 327 327 328 329 326 325 325 323 322 324 323 325 328 330 331 331 330 330 328 328 328 327 326 327 326 326 325 326 326 324 323 321 321 321 320 319 319 318 318 318 318 319 320 319
330 330 331 326 329 328 328 327 325 326 326 327 326 324 322 321 323 326 328 330 330 331 330 330 328 328 328 327 327 326 326 325 324 326 326 324 321 322 322 323 321 319 318 317 318 319 319 320 320
327 329 326 325 327 329 330 329 326 326 326 325 326 326 325 322 321 323 326 329 330 330 330 330 329 328 328 327 327 326 325 325 324 325 327 326 322 322 324 324 324 323 320 318 318 319 320 320 320
326 328 325 323 323 329 330 331 328 327 327 327 326 325 324 322 320 320 324 327 329 330 329 329 329 329 328 327 327 327 327 328 327 326 327 327 325 323 323 325 325 325 323 321 321 321 321 321 321
322 325 324 323 323 325 326 327 327 327 326 326 326 325 325 326 325 319 320 324 327 330 330 330 329 329 329 328 327 327 326 326 327 326 327 327 326 325 323 323 324 325 324 324 323 323 322 321 320
325 325 325 323 322 324 325 326 325 324 325 325 325 324 323 324 324 324 320 322 327 327 329 330 329 329 329 329 328 327 326 325 325 324 325 326 326 326 324 324 323 324 324 325 324 323 322 322 321
322 323 324 323 322 324 325 327 324 323 324 324 323 323 323 323 323 323 321 319 325 327 328 330 329 329 329 328 328 328 327 325 325 324 324 325 325 325 325 324 323 323 324 324 324 323 323 323 322
323 320 321 322 322 325 322 328 322 320 319 320 322 323 324 325 324 324 323 322 320 326 328 328 329 329 329 329 328 328 327 326 325 325 324 324 324 324 324 324 324 324 324 325 325 324 323 323 323
322 320 323 322 323 323 324 327 322 320 320 320 321 321 322 324 324 324 324 323 321 321 327 328 328 330 330 329 329 328 328 327 327 326 326 325 325 324 324 324 325 324 325 325 325 324 323 323 323
320 323 323 323 324 326 325 326 327 323 322 321 320 320 321 322 323 323 323 323 322 320 323 327 328 329 330 329 329 329 328 328 328 328 328 327 327 325 325 325 326 326 325 325 325 325 324 323 323
321 324 326 328 327 328 322 327 326 322 321 321 322 322 321 320 321 321 322 322 321 320 319 323 328 328 329 329 328 328 328 328 329 329 329 328 328 327 325 325 325 326 326 326 325 325 324 324 323
322 322 324 326 326 323 321 327 324 320 320 321 321 320 319 318 318 318 318 319 320 318 316 318 322 327 327 329 328 328 329 329 329 329 329 329 329 328 326 324 324 324 325 325 325 325 324 324 324
322 324 321 324 318 324 323 322 321 319 320 320 319 318 317 314 313 311 311 315 315 317 317 315 319 323 326 327 328 328 328 329 329 329 329 329 329 328 328 327 324 324 324 323 323 323 324 323 323
318 319 323 324 327 324 319 321 321 320 319 319 317 314 312 311 309 308 307 307 309 310 312 314 315 320 323 325 327 327 328 328 329 329 329 329 328 328 327 327 327 325 324 323 321 321 321 321 321
319 319 319 319 321 321 320 318 317 318 319 318 317 312 311 309 309 307 307 304 304 304 307 309 310 315 319 323 325 326 327 327 328 328 328 328 328 327 327 326 326 326 325 323 322 322 321 320 320
318 320 320 322 321 323 322 323 313 315 316 314 314 310 308 310 310 309 308 304 305 303 303 305 308 312 316 319 322 325 326 326 327 327 327 327 326 327 326 325 325 325 325 324 322 321 321 320 320

GFSSGP_925_thetae_171.txt.gz
Theta_e
329 326 323 326 330 331 331 331 329 330 331 329 329 330 330 328 331 337 335 336 334 333 338 338 336 337 335 333 332 331 330 330 331 331 330 332 331 331 330 331 335 330 330 330 329 329 328 327 328
328 325 325 329 334 332 330 328 329 330 331 330 329 330 331 335 335 336 336 335 335 333 336 338 336 336 334 333 332 330 330 330 330 331 330 330 330 331 330 329 330 329 329 331 328 328 328 327 327
327 325 328 332 333 332 331 329 328 332 331 331 331 331 331 334 335 334 336 335 335 332 335 338 336 335 334 333 331 330 330 329 329 330 330 330 329 330 331 328 329 329 329 329 328 328 328 327 326
327 330 328 332 334 329 328 329 329 332 331 330 332 331 332 333 335 333 336 335 334 332 335 337 336 335 334 333 330 331 331 329 328 330 329 329 328 329 329 328 329 328 328 328 328 328 327 326 323
331 332 334 333 331 328 328 329 330 331 331 331 331 330 331 334 335 334 335 335 333 331 334 336 336 335 334 333 329 329 331 331 329 328 327 328 328 327 329 328 328 328 328 328 327 327 326 323 320
334 333 337 336 332 327 328 329 330 331 330 331 331 329 332 334 335 334 333 333 332 329 334 337 336 335 334 332 330 329 330 332 329 328 327 327 327 327 328 328 327 327 327 327 327 326 322 320 320
335 338 338 337 334 329 325 327 331 330 330 331 331 330 333 334 335 334 332 332 331 329 333 336 338 336 334 333 331 329 329 334 330 328 327 326 326 326 327 327 327 327 327 328 324 321 319 318 319
332 335 338 336 336 336 326 326 325 328 330 329 330 331 331 334 334 334 332 331 330 329 331 334 336 337 336 334 332 330 329 330 329 328 327 326 326 326 326 327 326 326 326 326 325 322 320 318 318
329 336 338 337 336 335 327 325 325 323 326 328 331 331 332 334 334 334 332 331 329 328 329 332 334 335 335 334 333 330 329 328 327 327 327 326 326 325 325 326 326 326 325 323 323 323 320 319 317
334 338 336 334 334 333 330 329 328 327 326 327 328 330 332 333 334 334 332 330 327 327 329 329 332 334 334 333 332 331 329 328 328 327 326 327 327 326 325 326 326 326 325 322 321 321 320 321 321
331 334 333 333 332 330 331 330 330 330 332 329 329 328 332 333 334 333 332 330 329 326 328 327 330 332 333 332 332 331 329 328 327 328 328 327 326 326 325 324 325 325 323 323 320 319 320 322 322
330 329 328 331 330 328 330 330 332 330 331 330 331 328 327 331 332 333 333 331 330 327 326 329 327 330 332 333 331 330 329 328 327 327 328 328 326 326 324 324 322 323 321 323 322 322 322 322 321
330 324 326 327 329 329 329 330 330 330 329 328 328 328 326 325 328 329 331 332 331 329 327 328 329 327 330 331 330 329 329 328 327 327 327 326 326 326 325 325 323 322 321 322 322 321 322 321 321
326 326 325 325 327 327 327 327 327 327 326 326 328 328 326 327 326 326 329 332 332 331 328 327 329 328 327 329 329 329 328 327 327 327 326 326 325 325 325 325 324 322 321 320 320 320 321 322 321
327 329 326 327 327 327 326 328 326 325 326 325 326 326 326 325 327 327 327 331 332 332 330 328 329 328 327 328 329 328 328 327 327 326 326 325 324 323 323 323 323 322 321 320 320 320 321 321 321
329 327 328 322 325 327 328 324 322 323 324 325 327 327 327 326 325 325 326 327 331 332 331 330 329 329 328 327 328 328 327 327 326 327 326 325 324 323 323 322 321 321 321 320 319 319 320 320 321
328 329 330 327 325 325 330 327 323 324 325 325 326 326 326 327 326 324 325 326 329 331 332 331 330 329 328 328 327 327 327 327 326 327 327 326 324 323 323 323 323 321 320 319 319 319 320 321 321
326 328 325 325 324 325 327 327 326 326 326 327 327 327 326 325 325 325 324 324 326 329 331 332 332 330 329 328 328 328 327 327 326 325 327 327 326 324 323 324 325 324 323 321 319 319 321 321 322
322 323 324 323 323 324 324 325 324 324 324 325 326 326 326 326 325 324 326 323 323 327 330 331 332 332 330 329 329 329 327 325 326 325 325 327 327 326 324 324 325 326 325 324 322 322 322 323 322
325 325 324 323 321 323 322 323 322 322 323 324 324 325 325 325 325 324 323 326 322 325 329 330 331 331 331 330 329 329 328 325 325 325 325 326 327 327 326 324 324 326 326 325 324 323 324 324 323
322 323 323 324 321 321 321 323 322 321 321 322 322 323 323 323 325 324 324 323 325 324 327 329 330 331 331 331 330 330 329 328 327 326 327 328 327 327 327 325 325 325 325 326 325 325 324 324 324
323 320 320 320 322 324 319 323 320 319 319 319 320 321 321 323 324 323 324 324 323 323 325 328 330 331 331 331 331 331 330 329 328 327 327 326 326 327 327 326 325 325 324 325 325 325 325 324 324
323 319 320 320 323 322 321 324 320 320 320 320 320 320 320 321 322 322 324 324 325 325 323 328 329 331 331 331 331 331 331 330 329 328 327 326 326 326 326 327 326 325 325 325 325 326 325 325 324
319 321 321 322 324 327 323 322 321 319 321 322 322 321 321 321 322 322 322 323 324 325 325 324 329 330 331 331 331 331 331 330 330 328 327 327 326 326 326 326 326 325 325 325 325 326 326 325 325
320 322 326 326 325 327 320 325 322 322 322 322 321 321 322 322 322 321 320 320 320 323 324 325 325 329 329 332 331 331 331 330 330 329 328 327 327 326 326 325 326 325 325 326 326 326 327 325 325
321 322 324 322 327 324 321 326 325 321 321 321 322 321 321 320 317 313 312 312 313 315 319 322 322 325 328 330 332 331 331 331 330 330 329 328 328 328 328 327 327 326 326 327 327 327 327 326 325
320 323 320 321 322 324 324 322 321 321 321 321 320 320 317 317 315 312 312 310 309 310 313 318 319 321 323 328 331 331 330 330 330 329 329 329 329 329 329 328 327 327 327 327 327 327 327 326 325
319 318 323 322 323 323 318 320 321 320 320 319 320 318 315 315 316 315 315 313 310 309 308 310 312 318 318 322 327 330 330 330 330 329 329 330 330 330 330 330 328 326 326 325 325 325 325 324 324
317 320 320 321 323 322 320 318 317 317 317 318 318 316 315 313 316 317 315 315 313 309 308 307 309 312 315 319 323 327 328 329 329 330 329 329 330 330 330 330 328 327 325 324 323 323 323 323 323
317 317 319 321 318 320 320 320 315 317 318 318 317 315 316 316 317 316 316 315 316 314 312 307 307 309 311 314 320 323 326 327 328 329 329 329 330 330 330 329 329 329 327 324 322 322 321 321 321

GFSSGP_925_thetae_174.txt.gz
Theta_e
330 329 325 325 332 333 332 330 329 330 329 328 327 328 329 332 334 343 335 334 332 338 337 336 338 335 333 331 331 330 330 330 331 331 331 331 331 330 334 331 329 330 330 330 329 328 328 328 323
330 329 326 328 334 335 330 328 331 331 330 328 328 329 329 336 336 335 336 335 333 338 337 337 337 335 333 331 331 330 330 331 331 330 330 329 331 329 331 330 328 330 329 329 329 328 328 327 322
331 330 327 332 334 331 331 329 329 331 330 331 331 330 331 336 333 335 336 335 334 336 338 337 336 334 333 331 329 329 329 329 330 331 330 329 330 330 328 329 328 329 329 328 328 328 327 324 320
331 331 328 331 335 328 328 328 330 330 330 330 330 332 333 334 334 335 335 335 332 334 338 335 336 334 333 331 330 329 328 329 330 329 329 329 329 329 328 329 328 328 328 327 327 327 326 321 320
332 333 336 335 331 328 328 329 330 331 330 329 330 329 336 334 335 336 335 335 331 333 338 335 336 334 333 331 330 331 329 329 329 328 328 327 327 328 327 328 328 327 327 327 327 327 323 320 319
334 334 338 339 331 327 329 329 330 330 329 329 330 328 336 334 334 335 335 334 332 332 337 335 335 334 334 331 329 331 331 329 328 327 326 327 327 328 328 327 328 327 327 327 327 325 321 319 319
335 337 340 338 336 329 325 328 330 330 329 330 330 330 334 334 334 333 334 332 331 331 336 334 336 334 334 331 328 328 331 331 328 327 326 326 326 327 327 327 326 327 326 325 324 321 319 319 319
333 334 338 337 337 335 325 327 325 327 330 328 329 331 333 334 334 333 332 331 329 330 335 334 336 334 334 332 330 329 331 332 329 328 326 326 325 325 326 326 326 326 327 326 323 320 318 318 318
331 336 336 335 336 335 325 325 324 323 324 329 330 331 333 334 334 333 331 331 329 329 332 335 335 334 334 333 331 329 329 331 328 327 326 326 325 324 325 326 325 325 326 326 324 321 319 317 317
334 336 335 332 333 334 327 327 327 326 325 325 327 332 333 334 334 333 331 331 329 328 329 333 334 334 333 333 331 330 329 328 327 326 326 325 326 324 324 325 325 325 325 323 324 323 319 319 319
330 334 331 332 333 332 331 329 328 330 330 327 327 331 332 333 334 333 332 330 329 327 328 329 333 333 333 332 331 330 329 328 327 326 325 325 327 326 324 326 325 325 325 322 321 320 319 322 323
328 326 326 328 329 329 329 329 329 330 330 328 328 327 331 331 333 333 332 330 329 327 328 327 330 333 332 332 331 330 330 327 328 327 326 326 327 326 325 324 323 324 322 322 321 320 320 321 322
325 327 326 323 326 329 328 329 329 328 327 326 326 326 326 328 331 332 333 332 330 328 326 328 327 331 333 332 331 331 330 329 328 327 328 327 327 326 324 324 323 322 322 322 323 322 321 321 321
326 327 326 321 324 326 327 326 326 326 324 324 325 324 325 324 325 327 330 332 332 330 327 327 328 328 331 331 332 331 330 329 328 327 327 328 327 326 325 325 324 322 322 321 322 321 321 321 321
326 329 327 325 325 325 325 326 326 323 322 322 323 323 324 324 326 326 326 329 331 332 330 327 329 328 328 331 331 330 330 329 327 327 327 326 326 326 325 325 325 323 321 320 320 320 320 321 321
327 327 328 321 321 325 325 324 320 320 320 321 321 322 322 323 325 325 325 327 329 332 332 329 328 329 328 328 330 330 329 328 328 327 327 326 325 325 324 324 324 324 322 321 320 320 320 321 321
329 328 327 325 321 323 328 329 324 321 321 321 321 322 321 321 323 325 325 324 326 330 333 331 328 329 329 327 328 329 329 328 327 326 327 326 325 322 323 323 323 323 322 321 320 319 319 319 320
326 327 324 324 323 324 325 326 325 323 322 322 322 322 322 322 322 324 326 326 325 326 331 332 331 329 329 328 328 329 328 328 327 326 327 326 325 323 323 323 322 321 321 320 319 319 319 320 320
323 323 323 322 321 324 324 323 322 320 320 321 320 321 322 322 323 325 325 325 324 324 327 331 332 331 329 329 328 327 328 327 327 326 325 327 326 324 323 322 322 323 322 320 319 318 319 320 321
325 324 323 321 321 322 320 320 319 319 319 319 320 320 320 320 320 322 324 324 325 323 324 329 332 332 331 329 328 328 327 327 327 327 325 326 327 326 324 322 323 324 324 323 322 320 319 320 321
324 324 324 322 319 320 319 320 318 318 318 318 319 319 319 320 320 320 321 323 323 325 322 326 329 332 332 330 329 329 328 328 326 325 324 323 326 327 326 324 323 324 326 325 324 323 321 322 323
323 318 319 321 322 321 318 320 318 317 316 316 316 315 316 317 319 319 319 321 322 323 324 324 328 330 331 331 330 329 329 328 327 325 324 324 323 327 327 326 325 323 325 326 325 324 323 323 323
320 319 320 321 320 319 319 321 317 316 316 316 316 315 315 315 315 317 317 321 323 324 323 324 325 329 330 331 331 330 329 329 328 327 326 325 325 325 326 327 326 325 324 325 325 325 325 323 323
319 321 320 321 322 324 320 319 317 315 316 320 318 317 319 319 318 319 320 320 320 321 323 325 324 327 330 331 331 331 330 330 329 328 327 327 326 327 326 326 326 326 325 324 324 325 325 325 324
321 321 319 323 322 321 317 319 317 317 318 318 318 318 318 318 318 316 310 310 311 312 315 322 325 325 328 331 331 331 331 331 330 329 328 327 327 326 326 326 327 326 325 324 324 324 324 325 324
320 320 320 321 323 320 316 322 320 319 318 319 320 319 318 313 309 308 309 310 310 310 310 314 319 324 325 329 331 331 331 331 331 330 329 328 327 326 326 325 325 326 326 325 324 324 324 325 325
319 321 317 321 316 322 322 321 319 318 319 318 318 318 315 314 312 312 312 311 311 311 310 309 311 319 322 324 328 330 331 331 330 330 330 329 328 327 326 326 325 325 325 325 324 325 325 325 326
316 317 321 320 321 317 314 313 315 318 319 318 317 316 312 311 313 313 312 313 314 313 312 311 310 309 315 319 322 325 330 331 331 330 330 329 329 328 327 327 326 326 325 325 325 325 326 326 326
317 320 319 318 317 319 318 315 314 313 316 315 314 313 311 313 312 313 312 314 314 315 314 313 311 309 308 312 317 319 324 330 331 330 330 329 329 329 329 329 329 327 327 326 326 326 326 326 326
315 316 319 318 319 317 318 319 313 312 315 314 313 314 314 315 313 312 312 314 315 315 315 315 314 310 307 306 310 314 319 324 329 330 329 329 329 329 329 329 329 329 327 327 326 326 325 325 325

GFSSGP_925_thetae_180.txt.gz
Theta_e
332 332 329 323 325 323 326 327 326 327 327 324 324 328 332 333 337 334 333 334 334 337 338 337 335 334 331 330 330 330 330 332 331 332 333 334 333 331 331 329 328 330 330 329 328 328 329 329 329
332 332 326 320 325 326 325 327 329 328 326 324 324 329 333 339 333 332 335 335 333 337 338 337 334 330 329 330 329 329 330 331 330 331 332 333 333 331 330 329 329 328 329 329 328 328 329 329 327
332 330 321 323 321 326 328 327 328 328 327 327 328 327 332 335 332 332 334 336 333 336 337 336 332 329 331 329 329 329 330 330 329 330 329 334 333 330 330 328 328 328 328 328 328 328 328 326 326
332 326 322 323 326 325 324 327 326 327 327 327 327 333 331 333 334 334 335 335 334 336 337 335 332 330 329 327 329 329 329 329 328 329 330 329 329 329 326 328 327 327 328 328 327 325 324 324 324
329 322 329 330 325 327 325 325 325 327 327 327 325 333 334 334 333 334 336 336 335 334 336 335 332 331 328 327 326 327 329 329 329 328 329 329 327 329 327 326 326 326 328 328 327 321 323 324 324
327 325 333 336 329 326 326 324 325 326 326 326 326 333 333 334 334 333 336 336 334 334 335 335 332 331 328 327 326 328 329 328 328 328 328 329 327 328 328 326 325 326 327 327 326 319 321 323 323
330 328 334 334 335 325 324 325 324 325 326 328 324 334 331 332 333 333 334 334 335 336 335 334 333 332 329 327 328 328 329 329 327 326 327 328 327 327 327 327 326 324 326 326 322 318 319 322 323
325 327 333 331 333 333 322 324 321 325 329 326 325 332 333 331 334 333 331 333 337 337 336 334 334 332 331 328 329 328 329 328 327 326 324 326 327 326 327 327 326 326 322 325 319 317 318 319 322
325 329 332 332 332 331 322 323 321 320 325 326 329 327 329 333 334 334 330 332 335 336 335 334 334 332 332 328 329 328 330 329 328 326 325 324 326 326 325 325 325 326 325 321 318 317 317 318 319
326 327 329 327 328 329 324 322 322 323 322 323 331 332 332 332 333 332 330 328 335 336 335 334 334 333 333 330 328 327 330 330 328 327 326 323 323 325 326 325 324 325 326 325 320 318 316 316 317
329 328 327 327 328 327 327 325 324 323 327 322 324 332 331 330 330 330 329 329 332 334 334 333 333 334 333 332 329 328 328 331 329 327 326 324 322 321 325 324 324 323 324 326 324 321 318 316 316
329 325 325 323 322 326 327 325 326 326 326 323 324 329 331 330 329 329 329 329 328 329 332 333 333 334 334 332 331 330 329 331 330 328 326 325 322 323 321 324 324 324 323 324 324 322 319 317 320
323 322 322 323 322 321 325 326 326 324 322 321 322 328 329 330 330 330 330 330 330 329 328 330 334 333 334 333 332 331 330 329 329 328 326 325 322 324 324 323 322 322 323 322 321 320 319 318 321
321 323 325 323 323 321 325 325 324 322 321 322 321 321 327 329 330 330 330 330 329 330 329 328 329 333 334 333 332 331 330 330 329 327 326 325 323 324 325 325 324 324 323 320 320 319 319 318 319
323 324 323 323 323 323 323 323 324 320 320 320 319 318 317 319 328 329 331 331 331 330 330 328 327 327 332 333 332 332 331 331 329 329 327 326 324 323 325 325 324 324 323 321 320 320 319 319 319
324 323 325 321 321 321 322 321 320 318 319 319 317 315 315 315 317 321 326 329 330 331 330 330 328 326 327 330 333 332 332 331 330 329 329 326 325 324 325 325 325 324 322 320 319 319 322 321 321
324 323 324 323 321 319 321 324 320 318 317 317 315 314 314 313 315 318 319 322 326 329 331 330 329 327 326 326 330 332 332 331 330 329 330 329 327 326 325 326 326 325 322 323 321 321 321 322 321
324 323 322 322 320 320 320 321 320 319 319 317 316 314 314 314 315 320 321 322 321 323 325 329 330 329 328 326 327 330 331 331 331 330 329 330 328 327 327 327 326 325 324 324 322 322 320 320 320
321 323 323 319 318 320 319 318 317 319 317 316 314 313 313 314 315 318 319 320 322 323 322 326 329 329 327 326 326 328 329 330 330 330 330 329 329 327 326 327 326 325 324 324 324 322 320 320 319
323 323 322 319 318 318 317 316 314 314 314 314 314 313 314 314 314 315 318 320 320 321 322 324 328 328 328 327 327 326 327 328 328 329 329 329 329 328 327 326 326 325 324 324 323 323 320 319 319
322 322 322 322 317 316 314 317 314 313 312 312 312 312 313 314 314 313 314 317 318 319 320 321 324 328 328 328 327 326 326 326 327 327 327 328 328 327 327 326 326 324 324 322 323 323 321 319 318
322 319 321 321 318 318 314 319 314 313 312 311 309 308 309 311 312 313 313 315 317 318 317 318 320 326 328 328 327 327 327 326 326 326 326 326 326 327 326 326 326 325 323 322 321 321 320 319 317
321 318 320 319 317 317 316 316 313 311 312 311 309 309 307 308 310 311 311 314 315 316 316 318 318 320 326 328 327 327 327 327 327 326 326 326 326 326 326 325 325 324 324 322 321 320 319 318 318
316 318 319 317 317 321 316 315 313 311 311 311 310 313 313 314 310 308 311 311 310 311 311 310 311 318 321 328 328 327 327 327 327 326 326 326 325 325 325 325 325 325 323 322 322 322 321 319 318
318 320 315 315 322 317 313 316 314 312 311 310 312 311 312 313 304 306 307 308 310 311 312 312 312 312 311 319 326 328 328 327 327 327 326 326 325 324 324 324 325 325 324 323 322 322 322 321 320
317 318 312 313 317 316 313 317 316 312 311 311 309 309 309 304 305 306 306 308 310 312 313 312 311 311 313 312 311 321 328 328 328 327 327 327 326 326 325 325 324 324 325 324 323 322 322 323 322
317 319 312 313 307 315 314 313 312 313 312 312 312 310 306 304 306 309 309 310 310 312 312 312 313 313 313 313 311 309 315 327 328 328 328 327 327 327 326 326 325 324 324 324 324 323 323 322 323
317 315 319 312 314 317 313 313 315 313 313 312 311 312 309 307 309 308 308 309 309 307 306 307 310 311 310 310 310 309 308 308 314 327 328 328 328 328 327 327 326 325 325 325 325 324 324 323 322
317 318 317 315 311 314 312 310 306 311 311 309 309 310 307 308 308 307 306 305 303 303 303 303 304 305 306 307 307 306 306 307 306 306 314 327 328 328 328 328 327 326 325 325 325 325 325 324 323
314 316 316 318 314 311 314 313 310 309 310 308 308 308 309 308 306 303 302 301 301 300 300 300 300 300 300 300 302 304 305 304 304 304 305 309 322 328 328 328 327 326 325 325 325 325 325 325 324

GFSSGP_925_thetae_186.txt.gz
Theta_e
328 330 326 321 322 322 325 325 323 325 324 322 324 323 323 328 328 327 331 334 335 337 338 338 335 335 330 328 328 330 332 334 334 328 332 332 331 330 330 328 328 329 329 330 328 329 329 329 328
329 330 323 316 322 327 326 323 325 325 324 327 326 329 330 333 331 331 333 334 335 337 338 337 334 331 328 329 328 329 331 332 333 332 332 332 331 330 330 329 328 328 329 329 329 328 329 327 328
329 326 320 318 319 325 328 326 324 325 322 324 329 328 331 333 330 333 333 334 336 337 337 336 334 329 327 329 330 328 330 331 334 333 334 332 330 330 330 329 328 328 328 328 328 328 328 328 327
327 324 318 322 327 324 325 324 324 326 324 325 326 329 328 331 331 333 333 334 336 337 337 335 333 329 327 327 329 330 328 330 333 333 332 332 330 329 328 329 329 328 328 328 327 328 327 327 327
326 321 325 324 325 325 324 323 323 326 325 325 326 329 330 331 332 332 333 335 335 337 337 335 332 328 327 327 328 329 329 328 330 331 333 329 326 329 325 327 329 328 328 328 328 327 323 323 324
322 323 331 328 330 323 324 323 323 325 324 324 328 327 328 331 332 334 333 334 335 337 337 335 331 329 328 327 328 329 329 329 329 328 330 329 328 326 326 326 327 328 328 328 328 326 323 323 322
326 325 332 332 332 327 323 320 324 324 324 326 326 329 328 330 332 334 334 333 334 336 336 334 331 330 328 326 329 327 327 327 329 329 329 328 326 327 326 325 324 327 328 327 326 323 323 322 322
322 324 332 329 331 332 321 321 321 324 325 322 326 328 327 328 332 335 335 334 334 334 335 335 332 331 329 327 327 326 328 327 327 327 328 327 326 327 327 326 325 324 326 326 321 321 322 322 322
321 324 327 329 330 330 322 322 319 318 325 327 329 326 327 331 332 335 335 335 335 335 334 334 333 331 330 327 325 326 328 328 327 326 326 327 326 326 327 326 326 325 323 323 321 318 319 322 322
323 322 323 324 325 327 322 320 321 321 323 326 330 330 328 330 331 332 334 333 333 335 336 334 334 333 331 329 327 327 327 329 328 327 326 325 326 326 327 326 325 325 325 323 320 318 318 319 320
323 321 321 326 325 323 325 323 323 321 321 320 325 331 328 329 328 329 332 333 332 335 336 336 334 333 332 331 329 328 328 327 328 328 327 325 324 326 326 326 326 325 325 324 324 320 318 317 318
326 325 323 323 321 322 324 323 326 320 323 320 322 328 328 327 328 328 328 331 332 333 334 335 335 333 333 332 331 329 328 328 327 328 328 326 325 322 325 325 325 324 324 323 324 324 322 318 317
324 323 323 321 321 321 320 323 324 323 321 320 324 329 328 327 329 330 330 329 329 331 332 332 332 333 333 333 332 331 329 328 328 328 328 327 326 325 322 323 324 324 324 323 323 323 325 323 320
319 320 321 322 321 321 322 321 323 321 319 319 320 325 327 327 328 328 329 330 330 330 330 330 331 331 332 332 332 332 331 330 328 327 328 328 328 326 325 323 321 322 324 323 323 322 322 323 323
321 323 321 322 322 322 319 322 322 319 319 319 318 316 318 324 329 328 330 329 329 330 330 329 329 331 331 331 330 332 332 331 330 329 328 328 329 327 326 325 323 321 320 321 322 322 322 322 321
322 320 322 319 321 321 319 317 316 316 317 318 316 314 312 312 315 318 323 328 329 329 329 328 328 328 329 330 330 331 331 332 332 331 330 329 329 328 327 326 325 324 321 322 322 322 322 322 321
319 319 321 321 319 319 321 322 318 315 315 315 313 312 312 312 312 315 317 317 318 319 323 327 328 328 328 328 329 331 331 331 331 331 330 330 329 328 328 327 326 325 324 322 323 324 323 323 323
320 322 321 322 318 318 319 317 316 315 315 314 313 313 312 312 313 316 319 318 318 318 318 319 323 326 328 327 328 330 330 331 331 331 331 330 330 329 329 328 327 326 325 324 323 324 324 323 323
316 320 320 319 318 318 316 315 314 314 312 311 311 312 313 314 315 317 318 317 317 317 318 319 320 322 326 326 326 328 329 329 330 330 330 330 330 330 329 329 327 327 326 325 324 323 323 323 322
320 321 320 318 317 317 316 317 315 315 315 312 312 312 311 312 311 311 314 315 315 314 315 317 319 320 323 325 326 326 327 328 328 328 328 328 329 329 329 329 328 327 326 325 324 323 321 321 321
320 319 319 319 317 316 312 312 311 310 310 310 310 311 310 310 310 309 310 312 312 312 313 314 317 319 320 322 324 324 325 327 327 327 327 328 327 328 328 328 328 327 326 325 325 323 323 321 320
319 317 319 320 320 319 313 317 311 310 310 310 309 307 307 306 305 305 306 308 310 312 313 314 314 315 317 320 323 324 324 324 326 326 326 327 327 327 327 327 327 327 326 325 325 324 323 322 321
316 316 318 318 318 316 315 316 312 309 311 310 308 306 305 305 305 306 304 307 309 310 312 315 316 314 316 320 323 324 324 324 325 324 325 325 325 326 326 326 326 325 325 325 325 324 323 322 321
316 317 317 316 315 317 313 314 311 311 309 308 307 306 307 309 303 302 305 306 307 308 309 310 310 311 316 319 323 324 324 324 324 325 325 325 325 325 325 326 325 325 325 324 324 324 323 322 321
317 318 311 312 317 314 310 312 312 309 307 306 307 306 305 307 304 303 304 306 308 309 310 311 311 311 311 311 310 315 321 324 324 324 324 325 325 325 325 325 325 325 325 325 324 324 323 322 321
316 316 311 310 314 311 311 314 310 309 308 308 307 305 305 306 303 303 305 306 305 305 306 308 309 309 309 309 309 309 309 308 309 316 323 325 325 325 325 325 325 325 325 325 324 324 323 322 321
314 319 311 310 306 309 310 309 308 308 309 308 308 308 308 303 303 305 304 303 302 302 302 303 304 304 305 306 306 307 307 306 306 306 306 306 311 321 325 324 324 324 325 325 324 323 323 323 322
313 311 317 317 313 312 311 311 312 309 308 306 308 309 303 304 305 304 301 301 301 301 301 300 300 300 301 302 302 303 303 304 305 305 305 305 305 305 306 317 323 323 324 323 324 324 324 324 323
315 315 314 312 310 312 309 308 304 308 308 307 305 304 302 306 305 301 299 299 299 299 299 298 299 299 299 300 300 301 302 302 302 303 303 303 304 304 305 306 309 320 324 323 322 323 323 324 324
311 314 313 313 310 311 311 311 306 305 306 306 307 305 303 305 303 299 298 298 298 297 297 296 297 297 297 297 298 298 298 299 300 300 300 301 301 302 302 305 306 310 316 321 323 322 323 323 323